Погода в Екатеринино

Россия / Тамбовская область     52°59′28″N   40°50′06″E
темп.,
°C
ветер,
м/с
пор.,
м/с
влажн.,
%
обл.,
%
осадки,
мм/ч
давл.,
гПа
погр.,
м
26 февраля, пт
пт2600:00+1зсз41099100 0.0 1015275
03:00+1зсз41099100 0.0 1015285
06:00+1зюз36100100 0.5 1014126
09:00+2зюз411100100 1.6 1012265
12:00+2зюз514100100 0.1 1011414
15:00+2з71599100 0.2 1009467
18:00+2зюз615100100 0.3 1007408
21:00+2з61495100 0.3 1007465
27 февраля, сб
сб2700:00+1з61391100 0.0 1006475
03:00+1з71388100 0.0 1006464
06:000з6139192 0.0 1004518
09:000з7139693 0.1 1004660
12:00+1з71399100 0.1 1004666
15:00+1сз7139899 0.2 1005705
18:00−6ссз5128992 0.1 1007585
21:00−8ссз5119278 0.1 1010551
28 февраля, вс
вс2800:00−11ссз499163 0.0 1012416
03:00−12ссз499232 0.0 1014349
06:00−13ссз499323 0.0 1015338
09:00−12ссз479132 0.0 1016400
12:00−10ссз469085 0.0 1017444
15:00−9ссз469092 0.0 1017493
18:00−10ссз3594100 0.0 1018132
21:00−11ссз239569 0.0 102166
1 марта, пн
пн100:00−12с229563 0.0 102224
03:00−12ссз229662 0.1 102322
06:00−13с229553 0.0 102429
09:00−12ссв239438 0.0 1026127
12:00−10ссв118828 0.0 1027238
15:00−9сз128747 0.0 1028270
18:00−11зсз119227 0.0 102821
21:00−10юз239314 0.0 102923
2 марта, вт
вт200:00−9зюз349636 0.0 102876
03:00−7юз589568 0.1 1026201
06:00−4зюз71394100 0.1 1023370
09:00−2зюз71394100 0.1 1020531
12:00+1з61392100 0.0 1017643
15:00+1зсз71397100 0.2 1015611
18:000сз71395100 0.3 1015704
21:00−1сз6149199 0.4 1016525